TimeHST,TemperatureF,Dew PointF,Humidity,Sea Level PressureIn,VisibilityMPH,Wind Direction,Wind SpeedMPH,Gust SpeedMPH,PrecipitationIn,Events,Conditions,WindDirDegrees,DateUTC
12:53 AM,75.9,59.0,56,29.97,10.0,NNE,4.6,-,N/A,,Clear,30,2012-09-12 10:53:00
1:53 AM,73.9,60.1,62,29.96,10.0,SE,6.9,-,N/A,,Clear,140,2012-09-12 11:53:00
2:53 AM,75.0,60.1,60,29.94,10.0,ESE,10.4,-,N/A,,Clear,120,2012-09-12 12:53:00
3:53 AM,73.9,60.1,62,29.94,10.0,East,6.9,-,N/A,,Clear,100,2012-09-12 13:53:00
4:53 AM,75.0,60.1,60,29.96,10.0,East,5.8,-,N/A,,Mostly Cloudy,100,2012-09-12 14:53:00
5:53 AM,73.9,60.1,62,29.97,10.0,ESE,6.9,-,N/A,,Clear,110,2012-09-12 15:53:00
6:53 AM,75.9,60.1,58,29.99,10.0,SE,6.9,-,N/A,,Clear,130,2012-09-12 16:53:00
7:53 AM,80.1,64.0,58,30.00,10.0,SE,10.4,-,N/A,,Clear,140,2012-09-12 17:53:00
8:53 AM,81.0,66.9,62,30.01,10.0,South,9.2,-,N/A,,Scattered Clouds,180,2012-09-12 18:53:00
9:53 AM,82.0,68.0,62,30.00,10.0,South,10.4,-,N/A,,Clear,190,2012-09-12 19:53:00
10:53 AM,81.0,68.0,65,30.00,10.0,SSW,8.1,-,N/A,,Mostly Cloudy,210,2012-09-12 20:53:00
11:53 AM,80.1,66.9,64,29.98,10.0,WSW,10.4,-,N/A,,Overcast,250,2012-09-12 21:53:00
12:53 PM,81.0,64.9,58,29.96,10.0,WSW,6.9,-,N/A,,Overcast,250,2012-09-12 22:53:00
1:53 PM,82.0,64.9,56,29.94,10.0,SSW,5.8,-,N/A,,Overcast,210,2012-09-12 23:53:00
2:53 PM,81.0,64.0,56,29.92,10.0,SSW,8.1,-,N/A,,Overcast,200,2012-09-13 00:53:00
3:53 PM,81.0,64.0,56,29.91,10.0,SSE,10.4,-,N/A,,Overcast,160,2012-09-13 01:53:00
4:53 PM,81.0,64.0,56,29.92,10.0,SE,16.1,-,N/A,,Overcast,140,2012-09-13 02:53:00
5:53 PM,80.1,64.9,60,29.93,10.0,South,13.8,23.0,N/A,,Mostly Cloudy,170,2012-09-13 03:53:00
6:53 PM,79.0,64.9,62,29.95,10.0,South,12.7,-,N/A,,Overcast,170,2012-09-13 04:53:00
7:53 PM,79.0,64.0,60,29.98,10.0,ESE,8.1,-,N/A,,Overcast,110,2012-09-13 05:53:00
8:53 PM,80.1,60.1,50,30.00,10.0,East,13.8,-,N/A,,Overcast,90,2012-09-13 06:53:00
9:53 PM,79.0,59.0,50,30.01,10.0,Calm,Calm,-,N/A,,Overcast,0,2012-09-13 07:53:00
10:53 PM,79.0,64.0,60,30.02,10.0,SSE,5.8,-,N/A,,Mostly Cloudy,150,2012-09-13 08:53:00
11:53 PM,77.0,63.0,62,30.01,10.0,East,3.5,-,N/A,,Scattered Clouds,100,2012-09-13 09:53:00